RYR900A LKPR-EBCI

Flight info

Callsign RYR900A
Flight time 1h 11m
Altitude 32000
Route BALTU DCT DONAD DCT RAPET Z93 KODUK DCT MARZA DCT TEKTU DCT TESGA DCT UMUPU T880 ADMUM T880 BATTY
Aircraft B38M/M-V/N

Departure

Time 2026-05-07 20:50
Airport Václav Havel Airport Prague (LKPR)

Arrival

Time 2026-05-07 22:02
Airport Brussels South Charleroi Airport (EBCI)
Time Latitude Longitude Altitude Speed Heading
2026-05-07 20:28 50.10749 14.26074 1180 ft 0 kts 124°
2026-05-07 20:42 50.10748 14.26077 1176 ft 1 kts 124°
2026-05-07 20:42 50.10738 14.26097 1177 ft 3 kts 124°
2026-05-07 20:42 50.10724 14.26125 1178 ft 5 kts 142°
2026-05-07 20:43 50.10678 14.26116 1179 ft 9 kts 205°
2026-05-07 20:43 50.10625 14.26064 1178 ft 10 kts 212°
2026-05-07 20:43 50.10563 14.26003 1180 ft 9 kts 214°
2026-05-07 20:43 50.10518 14.25979 1186 ft 6 kts 177°
2026-05-07 20:44 50.10465 14.26050 1188 ft 14 kts 126°
2026-05-07 20:44 50.10399 14.26187 1190 ft 16 kts 127°
2026-05-07 20:44 50.10335 14.26319 1193 ft 15 kts 127°
2026-05-07 20:44 50.10265 14.26463 1196 ft 17 kts 127°
2026-05-07 20:45 50.10195 14.26610 1199 ft 17 kts 127°
2026-05-07 20:45 50.10123 14.26758 1201 ft 19 kts 126°
2026-05-07 20:45 50.10045 14.26922 1205 ft 18 kts 127°
2026-05-07 20:45 50.09970 14.27077 1208 ft 18 kts 127°
2026-05-07 20:46 50.09896 14.27230 1207 ft 19 kts 127°
2026-05-07 20:46 50.09806 14.27389 1208 ft 20 kts 134°
2026-05-07 20:46 50.09706 14.27543 1209 ft 20 kts 137°
2026-05-07 20:46 50.09602 14.27697 1210 ft 21 kts 136°
2026-05-07 20:47 50.09502 14.27853 1216 ft 19 kts 135°
2026-05-07 20:47 50.09409 14.27995 1220 ft 18 kts 134°
2026-05-07 20:47 50.09324 14.28130 1225 ft 17 kts 135°
2026-05-07 20:47 50.09248 14.28248 1229 ft 12 kts 136°
2026-05-07 20:48 50.09183 14.28288 1233 ft 8 kts 185°
2026-05-07 20:48 50.09143 14.28264 1237 ft 6 kts 211°
2026-05-07 20:48 50.09102 14.28214 1242 ft 9 kts 220°
2026-05-07 20:48 50.09073 14.28121 1235 ft 10 kts 288°
2026-05-07 20:49 50.09087 14.28087 1238 ft 2 kts 307°
2026-05-07 20:49 50.09108 14.28044 1232 ft 15 kts 307°
2026-05-07 20:49 50.09341 14.27563 1226 ft 99 kts 307°
2026-05-07 20:49 50.09900 14.26404 1210 ft 172 kts 308°
2026-05-07 20:50 50.10678 14.24776 1840 ft 194 kts 308°
2026-05-07 20:50 50.11468 14.23139 3255 ft 186 kts 308°
2026-05-07 20:50 50.12236 14.21541 4246 ft 190 kts 306°
2026-05-07 20:50 50.13056 14.19833 5036 ft 204 kts 305°
2026-05-07 20:51 50.13941 14.17994 5757 ft 221 kts 306°
2026-05-07 20:51 50.14910 14.15984 6405 ft 242 kts 306°
2026-05-07 20:51 50.15976 14.13771 7072 ft 261 kts 306°
2026-05-07 20:51 50.17101 14.11435 7790 ft 275 kts 306°
2026-05-07 20:52 50.18245 14.09056 8910 ft 274 kts 306°
2026-05-07 20:52 50.19395 14.06666 9891 ft 280 kts 306°
2026-05-07 20:52 50.20582 14.04194 10693 ft 289 kts 306°
2026-05-07 20:52 50.21778 14.01568 11251 ft 305 kts 297°
2026-05-07 20:53 50.22387 13.98362 11857 ft 316 kts 274°
2026-05-07 20:53 50.22134 13.94916 12547 ft 325 kts 253°
2026-05-07 20:53 50.21441 13.91553 13465 ft 327 kts 253°
2026-05-07 20:53 50.20747 13.88145 14246 ft 331 kts 252°
2026-05-07 20:54 50.20034 13.84706 15003 ft 335 kts 252°
2026-05-07 20:54 50.19308 13.81235 15739 ft 338 kts 252°
2026-05-07 20:54 50.18569 13.77724 16468 ft 342 kts 252°
2026-05-07 20:54 50.17823 13.74188 17192 ft 345 kts 253°
2026-05-07 20:55 50.17076 13.70658 17884 ft 349 kts 253°
2026-05-07 20:55 50.16300 13.67000 18552 ft 352 kts 253°
2026-05-07 20:55 50.15536 13.63402 19134 ft 355 kts 253°
2026-05-07 20:55 50.14752 13.59720 19720 ft 358 kts 253°
2026-05-07 20:56 50.13964 13.56023 20301 ft 362 kts 253°
2026-05-07 20:56 50.13155 13.52239 20882 ft 365 kts 253°
2026-05-07 20:56 50.12360 13.48520 21447 ft 368 kts 253°
2026-05-07 20:56 50.11547 13.44729 22006 ft 371 kts 254°
2026-05-07 20:57 50.10726 13.40905 22560 ft 374 kts 254°
2026-05-07 20:57 50.09896 13.37047 23101 ft 377 kts 254°
2026-05-07 20:57 50.09118 13.33185 23614 ft 378 kts 262°
2026-05-07 20:57 50.08910 13.29078 24097 ft 376 kts 270°
2026-05-07 20:58 50.08781 13.24980 24488 ft 380 kts 269°
2026-05-07 20:58 50.08657 13.20858 24965 ft 382 kts 269°
2026-05-07 20:58 50.08540 13.16712 25397 ft 385 kts 270°
2026-05-07 20:58 50.08426 13.12536 25820 ft 387 kts 269°
2026-05-07 20:59 50.08311 13.08328 26260 ft 390 kts 269°
2026-05-07 20:59 50.08195 13.04108 26670 ft 392 kts 269°
2026-05-07 20:59 50.08223 12.99851 27051 ft 393 kts 281°
2026-05-07 20:59 50.08872 12.95724 27458 ft 393 kts 285°
2026-05-07 21:00 50.09530 12.91615 27761 ft 398 kts 285°
2026-05-07 21:00 50.10212 12.87435 28173 ft 399 kts 285°
2026-05-07 21:00 50.10907 12.83233 28553 ft 402 kts 285°
2026-05-07 21:00 50.11612 12.79001 28887 ft 405 kts 285°
2026-05-07 21:01 50.12323 12.74731 29265 ft 407 kts 285°
2026-05-07 21:01 50.13035 12.70449 29619 ft 410 kts 285°
2026-05-07 21:01 50.13751 12.66133 30001 ft 411 kts 285°
2026-05-07 21:01 50.14464 12.61822 30421 ft 411 kts 285°
2026-05-07 21:02 50.15174 12.57519 30802 ft 410 kts 285°
2026-05-07 21:02 50.15885 12.53205 31153 ft 411 kts 285°
2026-05-07 21:02 50.16597 12.48871 31516 ft 411 kts 284°
2026-05-07 21:02 50.17305 12.44554 31882 ft 411 kts 284°
2026-05-07 21:03 50.18010 12.40239 32072 ft 411 kts 284°
2026-05-07 21:03 50.19032 12.31515 32071 ft 408 kts 269°
2026-05-07 21:04 50.19001 12.22687 32077 ft 410 kts 270°
2026-05-07 21:04 50.18980 12.13788 32074 ft 410 kts 270°
2026-05-07 21:05 50.18940 12.04883 32073 ft 411 kts 270°
2026-05-07 21:05 50.18892 11.95980 32074 ft 411 kts 270°
2026-05-07 21:06 50.18838 11.87056 32075 ft 411 kts 270°
2026-05-07 21:06 50.18901 11.78135 32077 ft 411 kts 272°
2026-05-07 21:07 50.19030 11.69212 32076 ft 411 kts 271°
2026-05-07 21:07 50.19144 11.60285 32077 ft 411 kts 271°
2026-05-07 21:08 50.19252 11.51359 32075 ft 411 kts 271°
2026-05-07 21:08 50.19352 11.42454 32076 ft 411 kts 271°
2026-05-07 21:09 50.19445 11.33543 32080 ft 411 kts 271°
2026-05-07 21:09 50.19532 11.24624 32081 ft 410 kts 271°
2026-05-07 21:10 50.19611 11.15787 32082 ft 410 kts 271°
2026-05-07 21:10 50.19685 11.06867 32086 ft 410 kts 271°
2026-05-07 21:11 50.19752 10.97971 32085 ft 410 kts 271°
2026-05-07 21:11 50.18977 10.84678 32090 ft 410 kts 263°
2026-05-07 21:12 50.18235 10.75861 32088 ft 410 kts 263°
2026-05-07 21:12 50.17611 10.68524 32087 ft 410 kts 263°
2026-05-07 21:13 50.16854 10.59708 32088 ft 410 kts 263°
2026-05-07 21:13 50.16091 10.50900 32088 ft 410 kts 263°
2026-05-07 21:14 50.15322 10.42103 32087 ft 410 kts 263°
2026-05-07 21:14 50.14546 10.33294 32089 ft 409 kts 263°
2026-05-07 21:15 50.14599 10.24539 32097 ft 406 kts 285°
2026-05-07 21:15 50.16087 10.16018 32093 ft 408 kts 285°
2026-05-07 21:16 50.17611 10.07496 32092 ft 408 kts 286°
2026-05-07 21:16 50.19155 9.98979 32093 ft 408 kts 286°
2026-05-07 21:17 50.20698 9.90454 32089 ft 407 kts 285°
2026-05-07 21:17 50.22230 9.81950 32090 ft 407 kts 285°
2026-05-07 21:18 50.23759 9.73427 32090 ft 407 kts 285°
2026-05-07 21:18 50.25267 9.64975 32095 ft 407 kts 285°
2026-05-07 21:19 50.26780 9.56459 32093 ft 407 kts 285°
2026-05-07 21:19 50.28289 9.47923 32093 ft 406 kts 285°
2026-05-07 21:20 50.29788 9.39400 32096 ft 406 kts 285°
2026-05-07 21:20 50.31282 9.30874 32096 ft 406 kts 285°
2026-05-07 21:21 50.32766 9.22361 32091 ft 406 kts 285°
2026-05-07 21:21 50.34267 9.13840 32092 ft 406 kts 287°
2026-05-07 21:22 50.35961 9.05412 32095 ft 406 kts 287°
2026-05-07 21:22 50.37633 8.96964 32093 ft 406 kts 287°
2026-05-07 21:23 50.39299 8.88499 32093 ft 406 kts 287°
2026-05-07 21:23 50.40948 8.80082 32098 ft 406 kts 287°
2026-05-07 21:24 50.42601 8.71609 32097 ft 406 kts 287°
2026-05-07 21:24 50.44248 8.63122 32099 ft 406 kts 285°
2026-05-07 21:25 50.45239 8.54417 32099 ft 406 kts 279°
2026-05-07 21:25 50.46120 8.45647 32097 ft 406 kts 278°
2026-05-07 21:26 50.46990 8.36873 32095 ft 406 kts 278°
2026-05-07 21:26 50.47840 8.28246 32094 ft 406 kts 278°
2026-05-07 21:27 50.48695 8.19484 32090 ft 406 kts 278°
2026-05-07 21:27 50.49545 8.10724 32088 ft 406 kts 278°
2026-05-07 21:28 50.50385 8.01974 32085 ft 405 kts 278°
2026-05-07 21:28 50.51221 7.93205 32086 ft 405 kts 278°
2026-05-07 21:29 50.52049 7.84448 32088 ft 405 kts 278°
2026-05-07 21:29 50.52868 7.75706 32087 ft 405 kts 277°
2026-05-07 21:30 50.53682 7.66950 32088 ft 404 kts 277°
2026-05-07 21:30 50.54490 7.58192 32083 ft 404 kts 277°
2026-05-07 21:31 50.55285 7.49500 32082 ft 404 kts 277°
2026-05-07 21:31 50.55876 7.40730 32085 ft 403 kts 270°
2026-05-07 21:32 50.55951 7.31911 32085 ft 403 kts 270°
2026-05-07 21:32 50.56018 7.23099 32081 ft 402 kts 270°
2026-05-07 21:33 50.56357 7.14314 32087 ft 402 kts 277°
2026-05-07 21:33 50.57031 7.05576 32083 ft 402 kts 276°
2026-05-07 21:34 50.57652 6.96831 32084 ft 402 kts 276°
2026-05-07 21:34 50.58255 6.88139 32074 ft 402 kts 275°
2026-05-07 21:35 50.58856 6.79394 32076 ft 402 kts 275°
2026-05-07 21:35 50.59449 6.70656 32076 ft 401 kts 275°
2026-05-07 21:36 50.60035 6.61917 32077 ft 401 kts 275°
2026-05-07 21:36 50.60613 6.53191 32078 ft 401 kts 275°
2026-05-07 21:37 50.61186 6.44461 32078 ft 400 kts 275°
2026-05-07 21:37 50.61738 6.35940 32103 ft 380 kts 275°
2026-05-07 21:38 50.62000 6.31861 31999 ft 367 kts 275°
2026-05-07 21:38 50.62253 6.27891 31693 ft 361 kts 275°
2026-05-07 21:38 50.62504 6.23949 31249 ft 363 kts 275°
2026-05-07 21:38 50.62755 6.19981 30784 ft 364 kts 275°
2026-05-07 21:39 50.63004 6.16015 30353 ft 363 kts 275°
2026-05-07 21:39 50.63251 6.12068 29885 ft 361 kts 275°
2026-05-07 21:39 50.63494 6.08150 29408 ft 359 kts 275°
2026-05-07 21:39 50.63735 6.04258 28976 ft 355 kts 275°
2026-05-07 21:40 50.63972 6.00398 28561 ft 351 kts 275°
2026-05-07 21:40 50.64205 5.96598 28136 ft 347 kts 275°
2026-05-07 21:40 50.64435 5.92835 27727 ft 344 kts 275°
2026-05-07 21:40 50.64662 5.89102 27317 ft 342 kts 275°
2026-05-07 21:41 50.64994 5.85373 26868 ft 345 kts 286°
2026-05-07 21:41 50.65962 5.81941 26502 ft 343 kts 295°
2026-05-07 21:41 50.67016 5.78557 26176 ft 344 kts 294°
2026-05-07 21:41 50.68076 5.75173 25814 ft 343 kts 295°
2026-05-07 21:42 50.69139 5.71817 25424 ft 341 kts 295°
2026-05-07 21:42 50.70202 5.68485 25047 ft 339 kts 295°
2026-05-07 21:42 50.71252 5.65199 24666 ft 339 kts 295°
2026-05-07 21:42 50.72314 5.61881 24294 ft 338 kts 295°
2026-05-07 21:43 50.73371 5.58576 23906 ft 337 kts 295°
2026-05-07 21:43 50.74427 5.55271 23483 ft 337 kts 295°
2026-05-07 21:43 50.75482 5.51965 23050 ft 336 kts 295°
2026-05-07 21:43 50.76530 5.48677 22656 ft 334 kts 295°
2026-05-07 21:44 50.77571 5.45405 22273 ft 332 kts 295°
2026-05-07 21:44 50.78607 5.42145 21888 ft 331 kts 295°
2026-05-07 21:44 50.79635 5.38907 21522 ft 329 kts 295°
2026-05-07 21:44 50.80661 5.35671 21137 ft 328 kts 295°
2026-05-07 21:45 50.81681 5.32448 20758 ft 327 kts 295°
2026-05-07 21:45 50.82700 5.29223 20382 ft 326 kts 295°
2026-05-07 21:45 50.83710 5.26024 20009 ft 324 kts 295°
2026-05-07 21:45 50.84713 5.22845 19632 ft 323 kts 295°
2026-05-07 21:46 50.85713 5.19672 19260 ft 321 kts 295°
2026-05-07 21:46 50.86704 5.16524 18892 ft 318 kts 295°
2026-05-07 21:46 50.87533 5.13305 18491 ft 314 kts 280°
2026-05-07 21:46 50.87703 5.11046 18259 ft 310 kts 273°
2026-05-07 21:47 50.87807 5.09100 18050 ft 308 kts 274°
2026-05-07 21:47 50.87985 5.05763 17696 ft 304 kts 274°
2026-05-07 21:47 50.88147 5.02496 17344 ft 300 kts 273°
2026-05-07 21:47 50.88303 4.99163 16999 ft 300 kts 273°
2026-05-07 21:48 50.88451 4.95891 16647 ft 303 kts 273°
2026-05-07 21:48 50.88601 4.92518 16288 ft 303 kts 273°
2026-05-07 21:48 50.88746 4.89228 15940 ft 303 kts 273°
2026-05-07 21:48 50.88891 4.85891 15583 ft 303 kts 273°
2026-05-07 21:49 50.89034 4.82573 15227 ft 302 kts 273°
2026-05-07 21:49 50.89176 4.79262 14868 ft 301 kts 273°
2026-05-07 21:49 50.89317 4.75924 14507 ft 298 kts 272°
2026-05-07 21:49 50.89453 4.72702 14154 ft 296 kts 272°
2026-05-07 21:50 50.89589 4.69464 13788 ft 293 kts 272°
2026-05-07 21:50 50.89723 4.66256 13396 ft 291 kts 272°
2026-05-07 21:50 50.89855 4.63079 13026 ft 288 kts 272°
2026-05-07 21:50 50.89985 4.59934 12675 ft 284 kts 272°
2026-05-07 21:51 50.90059 4.56834 12308 ft 281 kts 263°
2026-05-07 21:51 50.89472 4.53923 11955 ft 280 kts 238°
2026-05-07 21:51 50.88667 4.52316 11760 ft 281 kts 223°
2026-05-07 21:51 50.86864 4.49964 11402 ft 283 kts 218°
2026-05-07 21:52 50.85297 4.48026 11004 ft 286 kts 218°
2026-05-07 21:52 50.83707 4.46092 10510 ft 290 kts 217°
2026-05-07 21:52 50.82101 4.44160 10132 ft 289 kts 217°
2026-05-07 21:52 50.80524 4.42275 9880 ft 282 kts 217°
2026-05-07 21:53 50.78962 4.40417 9481 ft 280 kts 217°
2026-05-07 21:53 50.77411 4.38576 9097 ft 274 kts 217°
2026-05-07 21:53 50.75920 4.36811 8769 ft 262 kts 217°
2026-05-07 21:53 50.74474 4.35100 8456 ft 259 kts 217°
2026-05-07 21:54 50.73512 4.33962 8227 ft 263 kts 217°
2026-05-07 21:54 50.71930 4.32504 7834 ft 266 kts 197°
2026-05-07 21:54 50.70099 4.32275 7447 ft 265 kts 169°
2026-05-07 21:54 50.68414 4.33359 7142 ft 262 kts 144°
2026-05-07 21:55 50.67176 4.35421 6844 ft 259 kts 123°
2026-05-07 21:55 50.66223 4.37811 6527 ft 257 kts 122°
2026-05-07 21:55 50.65284 4.40220 6169 ft 257 kts 122°
2026-05-07 21:55 50.64362 4.42620 5814 ft 256 kts 121°
2026-05-07 21:56 50.63449 4.45015 5471 ft 254 kts 121°
2026-05-07 21:56 50.62543 4.47406 5141 ft 253 kts 121°
2026-05-07 21:56 50.61647 4.49778 4799 ft 251 kts 121°
2026-05-07 21:56 50.60761 4.52127 4551 ft 246 kts 121°
2026-05-07 21:57 50.59899 4.54415 4408 ft 241 kts 121°
2026-05-07 21:57 50.59034 4.56707 4252 ft 246 kts 121°
2026-05-07 21:57 50.58159 4.59027 4074 ft 247 kts 121°
2026-05-07 21:57 50.57296 4.61313 3910 ft 246 kts 121°
2026-05-07 21:58 50.56375 4.63568 3722 ft 243 kts 132°
2026-05-07 21:58 50.54991 4.64991 3457 ft 239 kts 162°
2026-05-07 21:58 50.53350 4.65090 3193 ft 237 kts 192°
2026-05-07 21:58 50.51946 4.63894 2955 ft 227 kts 220°
2026-05-07 21:59 50.50947 4.62087 2724 ft 213 kts 235°
2026-05-07 21:59 50.50277 4.60115 2477 ft 196 kts 245°
2026-05-07 21:59 50.49757 4.58238 2227 ft 177 kts 245°
2026-05-07 21:59 50.49282 4.56572 2010 ft 157 kts 244°
2026-05-07 22:00 50.48832 4.55029 1800 ft 157 kts 244°
2026-05-07 22:00 50.48382 4.53473 1638 ft 157 kts 244°
2026-05-07 22:00 50.47920 4.51895 1379 ft 160 kts 244°
2026-05-07 22:00 50.47451 4.50337 1091 ft 155 kts 245°
2026-05-07 22:01 50.47010 4.48823 881 ft 150 kts 246°
2026-05-07 22:01 50.46586 4.47328 675 ft 148 kts 245°
2026-05-07 22:01 50.46175 4.45946 625 ft 126 kts 246°
2026-05-07 22:01 50.45892 4.44968 623 ft 52 kts 245°
2026-05-07 22:02 50.45912 4.44794 617 ft 2 kts 331°
2026-05-07 22:02 50.45936 4.44777 616 ft 6 kts 335°
2026-05-07 22:02 50.45986 4.44761 616 ft 9 kts
2026-05-07 22:02 50.46033 4.44825 619 ft 11 kts 66°
2026-05-07 22:03 50.46058 4.44914 626 ft 10 kts 65°
2026-05-07 22:03 50.46090 4.45025 623 ft 12 kts 66°
2026-05-07 22:03 50.46129 4.45158 626 ft 14 kts 65°
2026-05-07 22:03 50.46173 4.45309 619 ft 13 kts 65°
2026-05-07 22:04 50.46215 4.45454 621 ft 16 kts 65°
2026-05-07 22:04 50.46251 4.45575 616 ft 9 kts 65°
2026-05-07 22:04 50.46280 4.45675 623 ft 11 kts 65°
2026-05-07 22:04 50.46316 4.45799 622 ft 14 kts 65°
2026-05-07 22:05 50.46358 4.45945 620 ft 16 kts 65°
2026-05-07 22:05 50.46397 4.46080 627 ft 12 kts 65°
2026-05-07 22:05 50.46435 4.46210 620 ft 14 kts 65°
2026-05-07 22:05 50.46473 4.46341 628 ft 10 kts 65°
2026-05-07 22:06 50.46503 4.46446 623 ft 11 kts 65°
2026-05-07 22:06 50.46538 4.46542 618 ft 8 kts 38°
2026-05-07 22:06 50.46592 4.46541 619 ft 9 kts 340°
2026-05-07 22:06 50.46643 4.46546 628 ft 6 kts 37°
2026-05-07 22:07 50.46664 4.46598 619 ft 6 kts 65°
2026-05-07 22:07 50.46685 4.46667 628 ft 8 kts 65°
2026-05-07 22:07 50.46712 4.46761 617 ft 11 kts 65°
2026-05-07 22:07 50.46747 4.46879 619 ft 13 kts 65°
2026-05-07 22:08 50.46782 4.47000 620 ft 12 kts 65°
2026-05-07 22:08 50.46806 4.47085 619 ft 4 kts 65°
2026-05-07 22:08 50.46826 4.47119 626 ft 3 kts 21°
2026-05-07 22:08 50.46848 4.47113 616 ft 2 kts 336°
2026-05-07 22:09 50.46865 4.47101 616 ft 2 kts 335°
2026-05-07 22:09 50.46870 4.47097 627 ft 0 kts 335°